sat.trackr.live / text

‹ back to catalog

STARLINK-36648

NORAD 67825 · 2026-033E

PAYLOAD ACTIVE UNKNOWN

§ Identity

Operator
Country
US
Launch date
2026-02-16
Launch site
AFETR
Launch vehicle
Mass (kg)
RCS (m²)

Purposes: comms

External: N2YO · Heavens-Above · Gunter

§ Orbital elements

Epoch: 2026-05-25T03:52:51.051936Z

Period
94.27 min
Inclination
42.9998°
Eccentricity
0.0001327
Mean motion
15.27577269 rev/d
Perigee alt
482.1 km
Apogee alt
484.0 km
Semi-major
6,861.2 km
B*
4.8591e-4
RAAN
194.8017°
Arg perigee
277.5738°
Mean anomaly
82.4962°
Rev number
1,637

§ Raw data

STARLINK-366481 67825U 26033E   26145.16170199  .00013132  00000+0  48591-3 0  99932 67825  42.9998 194.8017 0001327 277.5738  82.4962 15.27577269 16372

JSON: /api/v1/satellites/67825 · /tle

For live sub-satellite position, see the globe view (requires WebGL).

§ Visibility from observer

Set your observer location to see the next 7 days of passes ≥ 10°. The values pass through the URL so the page stays shareable.

No JS? Fill the form by hand. The geolocation button needs JavaScript.